Location: Bonny Doon Airfield
(37.0704°N, 122.1252°W)
Time: 06:04:10
(UTC-08:00)

N. Korean satellite - Pass Details

Date: 07 October 2017
Orbit: 461 x 513 km, 97.2° (Epoch: 16 December)

Event Time Altitude Azimuth Distance (km) Brightness Sun altitude
Rises 19:08:41 0° 164° (SSE) 2,579 10.1 -6.1°
Reaches altitude 10° 19:10:46 10° 163° (SSE) 1,691 9.2 -6.5°
Maximum altitude 19:14:24 77° 78° (ENE) 509 6.5 -7.2°
Drops below altitude 10° 19:18:00 10° 352° (N) 1,674 9.4 -7.9°
Sets 19:20:03 0° 351° (N) 2,549 10.3 -8.3°
